{"data":{"norad_id":57670,"intl_designator":"2023-124H","name":"STARLINK-30322","alt_names":[],"object_type":"PAYLOAD","status":"ACTIVE","operator":null,"country":"US","launch_date":"2023-08-22","launch_site_code":"AFWTR","launch_vehicle":null,"mission":null,"orbit_class":"UNKNOWN","rcs_meters":null,"size_class":null,"mass_kg":null,"dimensions":null,"purposes":["comms"],"wikipedia_slug":null,"has_3d_model":false,"image_url":null,"decayed_at":null,"tle_current":{"epoch":"2026-05-25T04:29:10.548096Z","epoch_age_seconds":56144,"freshness":"FRESH","line1":"1 57670U 23124H   26145.18692764 -.00000662  00000+0 -10243-4 0  9997","line2":"2 57670  53.1595 211.7438 0000982  74.4326 285.6783 15.30181326155275","mean_motion":15.30181326,"eccentricity":9.82e-5,"inclination_deg":53.1595,"raan_deg":211.7438,"arg_perigee_deg":74.4326,"mean_anomaly_deg":285.6783,"bstar":-1.0243e-5,"rev_number":15527,"period_min":94.106494147609,"perigee_km":474.59782253572,"apogee_km":475.94383183298,"semimajor_km":6853.4078271844,"source":"CELESTRAK","updated_at":"2026-05-25T13:38:18.368047Z"}}}